Terug naar catalogus

Sitro-AIS-59

ActiefCommunicatieSSO
NORAD 67257·PAYLOAD·🇷🇺 Russia

Gelanceerd Dec 28, 2025 vanaf Vostochny Cosmodrome

Loading…

Volgende Passages (komende 24 uur)

TLE

VersSource: Space-Track

Epoch: Sep 14, 2026, 11:04 UTC

1 67257U 25313K   26257.46138286  .00006796  00000-0  27933-3 0  9996
2 67257  97.3858 330.7480 0016075  54.6785 305.5953 15.24379463 39543

Volg Sitro-AIS-59 in realtime met AllMySat

Download on the App Store